"2009-06-30 00:00:00",1019822,1.95,353,9.94,0.969,22.01,110.4703,26.1,27.02,16.3,0,111.3,13.1,26.95,315.0
"2009-06-30 00:00:30",1019823,3.313,342.2,10.13,0.526,21.64,110.4677,26.1,27.03,15.99,0,111.3,13.1,26.94,304.2
"2009-06-30 00:01:00",1019824,4.593,355.2,8.39,0.48,21.63,110.461,26.08,27.03,15.77,0,111.3,13.1,26.92,317.2
"2009-06-30 00:01:30",1019825,4.21,355.2,5.382,0.77,21.73,110.4686,26.1,27.03,15.6,0,111.3,13.1,26.94,317.2
"2009-06-30 00:02:00",1019826,3.942,2.584,5.353,0.943,21.7,110.47,26.1,27.05,15.56,0,111.3,13.1,26.95,324.6
"2009-06-30 00:02:30",1019827,3.358,10.96,4.885,0.471,21.64,110.4705,26.1,27.05,15.52,0,111.3,13.1,26.95,333.0
"2009-06-30 00:03:00",1019828,4.484,15.33,12.17,0.599,21.7,110.4703,26.1,27.06,15.33,0,111.3,13.1,26.95,337.3
"2009-06-30 00:03:30",1019829,4.925,25.29,1.524,0.626,21.68,110.4655,26.09,27.06,15.18,0,111.3,13.1,26.93,347.3
"2009-06-30 00:04:00",1019830,5.511,33.67,5.104,0.251,21.64,110.4607,26.08,27.06,15.25,0,111.3,13.1,26.92,355.7
"2009-06-30 00:04:30",1019831,5.338,36.4,2.932,0.62,21.65,110.4481,26.05,27.07,15.26,0,111.3,13.1,26.89,358.4
"2009-06-30 00:05:00",1019832,5.085,20.04,7.226,0.535,21.74,110.4433,26.03,27.06,15.15,0,111.3,13.1,26.88,342.0
"2009-06-30 00:05:30",1019833,5.093,27.74,3.727,0.254,21.72,110.438,26.02,27.04,15.09,0,111.3,13.1,26.86,349.7
"2009-06-30 00:06:00",1019834,4.73,27.97,3.732,0.462,21.77,110.4399,26.03,27.04,15.14,0,111.3,13.1,26.87,350.0
"2009-06-30 00:06:30",1019835,3.973,26.94,5.729,0.266,21.74,110.4277,25.99,27.02,15.23,0,111.3,13.1,26.84,348.9
"2009-06-30 00:07:00",1019836,4.11,4.265,4.982,0.308,21.76,110.4161,25.96,27.01,15.21,0,111.3,13.1,26.81,326.3
"2009-06-30 00:07:30",1019837,3.868,8.62,5.69,0.556,21.78,110.4161,25.96,27.01,15.22,0,111.3,13.1,26.81,330.6
"2009-06-30 00:08:00",1019838,3.757,353.6,6.163,0.857,21.73,110.4156,25.96,27,15.42,0,111.3,13.1,26.81,315.6
"2009-06-30 00:08:30",1019839,3.067,1.254,5.53,0.542,21.76,110.3989,25.92,26.97,15.61,0,111.3,13.1,26.76,323.3
"2009-06-30 00:09:00",1019840,2.678,4.759,6.978,0.594,21.83,110.392,25.9,26.95,15.35,0,111.3,13.1,26.74,326.8
"2009-06-30 00:09:30",1019841,2.204,2.632,6.678,0.591,21.83,110.3908,25.9,26.93,15.24,0,111.3,13.1,26.74,324.6
"2009-06-30 00:10:00",1019842,3.098,5.845,5.366,0.832,21.82,110.3897,25.9,26.92,15.36,0,111.3,13.1,26.74,327.8
"2009-06-30 00:10:30",1019843,4.407,10.39,5.818,0.824,21.8,110.3781,25.87,26.9,15.46,0,111.3,13.1,26.71,332.4
"2009-06-30 00:11:00",1019844,4.15,14.29,6.565,0.727,21.77,110.3687,25.84,26.89,15.44,0,111.3,13.1,26.68,336.3
"2009-06-30 00:11:30",1019845,3.624,14.16,4.403,0.949,21.83,110.3641,25.83,26.88,15.4,0,111.3,13.1,26.67,336.2
"2009-06-30 00:12:00",1019846,4.528,12.2,2.11,0.818,21.81,110.3633,25.83,26.86,15.38,0,111.3,13.1,26.67,334.2
"2009-06-30 00:12:30",1019847,2.767,1.688,6.273,0.677,21.85,110.3637,25.83,26.85,15.39,0,111.3,13.1,26.67,323.7
"2009-06-30 00:13:00",1019848,2.977,2.064,2.798,0.484,21.82,110.3559,25.81,26.83,15.05,0,111.3,13.1,26.65,324.1
"2009-06-30 00:13:30",1019849,3.079,359.6,2.827,0.224,21.8,110.3433,25.78,26.81,14.87,0,111.3,13.1,26.62,321.6
"2009-06-30 00:14:00",1019850,3.003,3.846,6.987,0.698,21.76,110.3388,25.77,26.8,14.89,0,111.3,13.11,26.61,325.8
"2009-06-30 00:14:30",1019851,3.937,2.235,7.793,0.659,21.7,110.3339,25.75,26.8,15.08,0,111.3,13.11,26.59,324.2
"2009-06-30 00:15:00",1019852,2.781,3.775,4.951,0.625,21.76,110.3346,25.75,26.78,15.19,0,111.3,13.11,26.60,325.8
"2009-06-30 00:15:30",1019853,3.709,18.38,8.92,0.88,21.69,110.3344,25.75,26.77,15.31,0,111.3,13.11,26.60,340.4
"2009-06-30 00:16:00",1019854,3.532,5.648,8.72,0.56,21.68,110.336,25.76,26.75,15.15,0,111.3,13.11,26.60,327.6
"2009-06-30 00:16:30",1019855,3.481,9.05,5.436,0.431,21.52,110.3357,25.76,26.75,15.1,0,111.3,13.11,26.60,331.0
"2009-06-30 00:17:00",1019856,3.35,17.73,1.864,0.207,21.51,110.3275,25.74,26.73,14.9,0,111.3,13.11,26.58,339.7
"2009-06-30 00:17:30",1019857,3.626,16.42,2.443,0.314,21.34,110.3217,25.72,26.73,14.97,0,111.3,13.12,26.56,338.4
"2009-06-30 00:18:00",1019858,4.126,15.66,3.171,0.27,21.21,110.3213,25.72,26.73,15.06,0,111.3,13.12,26.56,337.7
"2009-06-30 00:18:30",1019859,3.821,12.51,4.244,0.519,21.12,110.3284,25.74,26.72,14.92,0,111.3,13.12,26.58,334.5
"2009-06-30 00:19:00",1019860,4.146,13.67,3.1,0.375,21.2,110.3365,25.76,26.73,14.87,0,111.2,13.12,26.60,335.7
"2009-06-30 00:19:30",1019861,4.209,5.371,7.403,0.445,21.37,110.3393,25.77,26.72,15.06,0,111.2,13.12,26.61,327.4
"2009-06-30 00:20:00",1019862,4.487,13.32,1.957,0.187,21.19,110.3399,25.77,26.74,15.18,0,111.2,13.12,26.61,335.3
"2009-06-30 00:20:30",1019863,3.74,17.53,3.199,0.295,21.14,110.3413,25.77,26.74,15.27,0,111.2,13.12,26.61,339.5
"2009-06-30 00:21:00",1019864,3.456,22.15,1.944,0.187,21.05,110.3489,25.79,26.76,15.31,0,111.2,13.12,26.63,344.1
"2009-06-30 00:21:30",1019865,3.268,27.4,2.156,0.297,21,110.3624,25.83,26.78,15.33,0,111.2,13.12,26.67,349.4
"2009-06-30 00:22:00",1019866,3.989,31.22,1.356,0.401,21,110.3739,25.86,26.79,15.31,0,111.2,13.12,26.70,353.2
"2009-06-30 00:22:30",1019867,4.057,33.85,1.61,0.415,21.01,110.3857,25.89,26.82,15.53,0,111.2,13.12,26.73,355.9
"2009-06-30 00:23:00",1019868,4.258,36.21,1.419,0.227,21.04,110.4064,25.94,26.85,15.66,0,111.2,13.12,26.78,358.2
"2009-06-30 00:23:30",1019869,4.196,35.42,2.565,0.314,21.16,110.4132,25.96,26.88,15.81,0,111.2,13.12,26.80,357.4
"2009-06-30 00:24:00",1019870,4.221,39.18,2.527,0.128,21.21,110.4367,26.02,26.9,15.53,0,111.2,13.12,26.86,1.2
"2009-06-30 00:24:30",1019871,4.15,37.7,1.855,0.241,21.22,110.4429,26.03,26.92,15.23,0,111.2,13.12,26.88,359.7
"2009-06-30 00:25:00",1019872,4.438,39.33,1.361,0.106,21.17,110.455,26.06,26.95,14.99,0,111.2,13.11,26.91,1.3
"2009-06-30 00:25:30",1019873,4.213,38.47,1.149,0.105,21.12,110.4746,26.11,26.98,15.24,0,111.2,13.11,26.96,0.5
"2009-06-30 00:26:00",1019874,4.278,39.84,1.188,0.088,21.1,110.4783,26.12,27.03,15.46,0,111.2,13.11,26.97,1.8
"2009-06-30 00:26:30",1019875,4.311,38.88,2.155,0.12,21.03,110.4929,26.16,27.04,15.22,0,111.3,13.11,27.00,0.9
"2009-06-30 00:27:00",1019876,4.217,34.49,1.69,0.258,21.05,110.508,26.2,27.07,15.31,0,111.2,13.11,27.04,356.5
"2009-06-30 00:27:30",1019877,3.468,31.69,2.397,0.475,21.05,110.516,26.22,27.11,15.22,0,111.2,13.11,27.06,353.7
"2009-06-30 00:28:00",1019878,3.59,31.33,2.482,0.355,21.02,110.5366,26.27,27.13,15.24,0,111.2,13.11,27.12,353.3
"2009-06-30 00:28:30",1019879,4.487,38.13,2.692,0.186,21.04,110.5424,26.29,27.16,15.07,0,111.2,13.11,27.13,0.1
"2009-06-30 00:29:00",1019880,3.883,31.58,2.357,0.493,21.08,110.5522,26.31,27.19,14.9,0,111.3,13.11,27.16,353.6
"2009-06-30 00:29:30",1019881,3.789,34.13,2.529,0.163,21.18,110.5679,26.35,27.23,14.75,0,111.3,13.11,27.20,356.1
"2009-06-30 00:30:00",1019882,4.383,34.94,2.242,0.285,21.3,110.5715,26.36,27.25,14.65,0,111.3,13.11,27.21,356.9
"2009-06-30 00:30:30",1019883,4.729,36.29,2.803,0.34,21.37,110.5827,26.39,27.28,14.82,0,111.3,13.11,27.24,358.3
"2009-06-30 00:31:00",1019884,4.446,35.56,3.156,0.282,21.39,110.5988,26.43,27.3,14.83,0,111.3,13.11,27.28,357.6
"2009-06-30 00:31:30",1019885,3.786,30.89,6.269,0.29,21.42,110.5998,26.44,27.34,14.93,0,111.3,13.11,27.28,352.9
"2009-06-30 00:32:00",1019886,3.424,29.95,3.052,0.254,21.45,110.6006,26.44,27.34,14.74,0,111.3,13.11,27.28,352.0
"2009-06-30 00:32:30",1019887,3.522,28.39,2.672,0.365,21.32,110.6012,26.44,27.36,14.75,0,111.3,13.11,27.28,350.4
"2009-06-30 00:33:00",1019888,3.405,24.21,2.701,0.633,21.31,110.6023,26.44,27.37,15.37,0,111.3,13.11,27.29,346.2
"2009-06-30 00:33:30",1019889,2.308,19.97,7.992,0.363,21.43,110.6076,26.46,27.37,15.49,0,111.3,13.11,27.30,342.0
"2009-06-30 00:34:00",1019890,2.413,19.07,4.798,0.37,21.48,110.6094,26.46,27.4,15.54,0,111.3,13.11,27.30,341.1
"2009-06-30 00:34:30",1019891,2.857,28.19,4.369,0.284,21.51,110.6094,26.46,27.4,15.37,0,111.3,13.11,27.30,350.2
"2009-06-30 00:35:00",1019892,2.661,28.46,3.969,0.315,21.57,110.6103,26.46,27.41,15.41,0,111.3,13.11,27.31,350.5
"2009-06-30 00:35:30",1019893,2.715,28.83,2.437,0.325,21.54,110.6084,26.46,27.42,15.65,0,111.3,13.11,27.30,350.8
"2009-06-30 00:36:00",1019894,2.775,22.51,3.876,0.203,21.57,110.6042,26.45,27.43,15.97,0,111.3,13.11,27.29,344.5
"2009-06-30 00:36:30",1019895,3.64,23.23,3.517,0.664,21.59,110.6028,26.44,27.42,15.95,0,111.3,13.11,27.29,345.2
"2009-06-30 00:37:00",1019896,4.379,36.13,5.496,0.463,21.55,110.6044,26.45,27.41,15.92,0,111.3,13.11,27.29,358.1
"2009-06-30 00:37:30",1019897,4.859,31.62,3.096,0.213,21.52,110.6019,26.44,27.42,15.88,0,111.3,13.11,27.29,353.6
"2009-06-30 00:38:00",1019898,5.085,30.07,1.83,0.667,21.63,110.5857,26.4,27.4,16.04,0,111.3,13.11,27.24,352.1
"2009-06-30 00:38:30",1019899,4.256,28.36,2.481,0.435,21.75,110.5741,26.37,27.39,16.27,0,111.3,13.11,27.21,350.4
"2009-06-30 00:39:00",1019900,4.083,29.67,2.69,0.544,21.71,110.5648,26.35,27.38,16.3,0,111.3,13.11,27.19,351.7
"2009-06-30 00:39:30",1019901,4.106,34.99,3.581,0.537,21.72,110.5447,26.29,27.36,16.5,0,111.3,13.11,27.14,357.0
"2009-06-30 00:40:00",1019902,4.483,33,1.566,0.551,21.65,110.538,26.28,27.32,16.13,0,111.3,13.11,27.12,355.0
"2009-06-30 00:40:30",1019903,5.371,37.05,2.474,0.303,21.7,110.5136,26.21,27.3,16.18,0,111.3,13.11,27.06,359.0
"2009-06-30 00:41:00",1019904,5.089,38.37,4.503,0.62,21.72,110.4965,26.17,27.26,16.49,0,111.3,13.11,27.01,0.4
"2009-06-30 00:41:30",1019905,4.661,38.31,3,0.447,21.67,110.4762,26.12,27.23,16.44,0,111.3,13.11,26.96,0.3
"2009-06-30 00:42:00",1019906,4.987,42.39,2.492,0.382,21.57,110.4642,26.09,27.2,16.23,0,111.3,13.11,26.93,4.4
"2009-06-30 00:42:30",1019907,4.859,37.15,4.828,0.413,21.53,110.4432,26.03,27.16,16.4,0,111.3,13.11,26.88,359.1
"2009-06-30 00:43:00",1019908,4.03,30.41,3.098,0.328,21.58,110.4322,26.01,27.14,16.59,0,111.3,13.11,26.85,352.4
"2009-06-30 00:43:30",1019909,4.379,34.39,2.087,0.474,21.47,110.4109,25.95,27.1,16.62,0,111.3,13.11,26.79,356.4
"2009-06-30 00:44:00",1019910,5.124,44.53,4.82,0.346,21.39,110.4059,25.94,27.05,16.82,0,111.3,13.11,26.78,6.5
"2009-06-30 00:44:30",1019911,5.723,45.28,2.224,0.288,21.32,110.3868,25.89,27.03,16.93,0,111.3,13.11,26.73,7.3
"2009-06-30 00:45:00",1019912,5.652,44.41,1.757,0.13,21.28,110.375,25.86,26.99,17.02,0,111.3,13.11,26.70,6.4
"2009-06-30 00:45:30",1019913,5.493,44.81,3.595,0.238,21.31,110.3736,25.85,26.96,17.14,0,111.3,13.11,26.70,6.8
"2009-06-30 00:46:00",1019914,5.074,44.11,2.584,0.26,21.29,110.366,25.84,26.93,17.31,0,111.3,13.11,26.68,6.1
"2009-06-30 00:46:30",1019915,4.925,45.26,4.312,0.406,21.32,110.352,25.8,26.92,17.48,0,111.3,13.11,26.64,7.3
"2009-06-30 00:47:00",1019916,5.362,43.97,3.548,0.523,21.33,110.3469,25.79,26.9,17.4,0,111.3,13.11,26.63,6.0
"2009-06-30 00:47:30",1019917,5.611,51.89,6.431,0.482,21.38,110.3413,25.77,26.87,16.87,0,111.3,13.11,26.61,13.9
"2009-06-30 00:48:00",1019918,6.347,44.49,2.709,0.381,21.44,110.3402,25.77,26.84,16.78,0,111.3,13.11,26.61,6.5
"2009-06-30 00:48:30",1019919,4.964,50.9,2.422,0.31,21.41,110.3402,25.77,26.83,16.29,0,111.3,13.11,26.61,12.9
"2009-06-30 00:49:00",1019920,4.92,48.7,1.66,0.231,21.42,110.3396,25.77,26.82,15.71,0,111.3,13.11,26.61,10.7
"2009-06-30 00:49:30",1019921,5.308,50.82,2.089,0.337,21.46,110.336,25.76,26.82,15.77,0,111.3,13.12,26.60,12.8
"2009-06-30 00:50:00",1019922,6.152,55.7,2.313,0.613,21.46,110.3191,25.71,26.8,16.72,0,111.3,13.12,26.56,17.7
"2009-06-30 00:50:30",1019923,7.12,60.88,4.32,0.372,21.6,110.3093,25.69,26.78,17.25,0,111.3,13.12,26.53,22.9
"2009-06-30 00:51:00",1019924,6.002,53.28,8.01,0.388,21.63,110.3065,25.68,26.77,17.3,0,111.3,13.12,26.52,15.3
"2009-06-30 00:51:30",1019925,7.305,52.83,3.458,0.527,21.43,110.3003,25.67,26.75,17.64,0,111.2,13.12,26.51,14.8
"2009-06-30 00:52:00",1019926,8.06,56.65,1.614,0.33,21.43,110.2796,25.61,26.72,18.07,0,111.3,13.12,26.45,18.7
"2009-06-30 00:52:30",1019927,7.777,60.05,1.361,0.198,21.44,110.2725,25.59,26.7,18.07,0,111.2,13.12,26.44,22.0
"2009-06-30 00:53:00",1019928,7.336,59.5,1.417,0.095,21.47,110.2532,25.55,26.66,17.99,0,111.2,13.12,26.39,21.5
"2009-06-30 00:53:30",1019929,7.391,60.4,1.014,0.083,21.43,110.2391,25.51,26.64,17.63,0,111.2,13.12,26.35,22.4
"2009-06-30 00:54:00",1019930,7.254,61.93,0.786,0.178,21.37,110.2269,25.48,26.61,17.55,0,111.2,13.12,26.32,23.9
"2009-06-30 00:54:30",1019931,7.302,61.63,0.646,0.148,21.3,110.2071,25.43,26.58,17.9,0,111.2,13.12,26.27,23.6
"2009-06-30 00:55:00",1019932,7.025,60.43,0.482,0.137,21.31,110.1989,25.41,26.55,18.07,0,111.2,13.12,26.25,22.4
"2009-06-30 00:55:30",1019933,7.005,60.04,0.884,0.154,21.31,110.177,25.35,26.52,18.06,0,111.2,13.12,26.19,22.0
"2009-06-30 00:56:00",1019934,6.984,62.38,1.693,0.162,21.25,110.1691,25.33,26.49,18.7,0,111.2,13.12,26.17,24.4
"2009-06-30 00:56:30",1019935,7.023,64.39,1.312,0.253,21.36,110.1465,25.27,26.47,19.22,0,111.2,13.12,26.11,26.4
"2009-06-30 00:57:00",1019936,7.612,59.38,2.006,0.105,21.31,110.1393,25.25,26.42,18.64,0,111.2,13.12,26.09,21.4
"2009-06-30 00:57:30",1019937,7.211,60.72,1.263,0.252,21.34,110.1235,25.21,26.39,18.99,0,111.2,13.12,26.05,22.7
"2009-06-30 00:58:00",1019938,7.124,63.51,1.503,0.223,21.43,110.1156,25.19,26.34,18.36,0,111.2,13.12,26.03,25.5
"2009-06-30 00:58:30",1019939,7.477,59.98,1.05,0.461,21.38,110.0991,25.15,26.31,18.48,0,111.2,13.12,25.99,22.0
"2009-06-30 00:59:00",1019940,7.735,60.65,1.179,0.184,21.4,110.0865,25.12,26.29,18.77,0,111.2,13.12,25.96,22.7
"2009-06-30 00:59:30",1019941,7.706,58.7,1.969,0.145,21.41,110.0755,25.09,26.25,18.63,0,111.2,13.12,25.93,20.7
"2009-06-30 01:00:00",1019942,7.726,57.74,1.005,0.103,21.45,110.0574,25.04,26.21,18.52,0,111.2,13.12,25.88,19.7
"2009-06-30 01:00:30",1019943,7.469,59.06,2.588,0.275,21.44,110.0472,25.02,26.17,18.49,0,111.2,13.12,25.86,21.1
"2009-06-30 01:01:00",1019944,7.092,61.27,1.213,0.226,21.46,110.028,24.97,26.13,18.46,0,111.2,13.12,25.81,23.3
"2009-06-30 01:01:30",1019945,7.217,59.59,0.963,0.256,21.47,110.0272,24.96,26.1,18.65,0,111.2,13.12,25.80,21.6
"2009-06-30 01:02:00",1019946,6.876,59.68,2.039,0.264,21.48,110.0116,24.92,26.07,18.77,0,111.2,13.12,25.76,21.7
"2009-06-30 01:02:30",1019947,6.725,61.42,2.044,0.204,21.45,109.9974,24.89,26.05,19.07,0,111.2,13.12,25.73,23.4
"2009-06-30 01:03:00",1019948,6.516,63.53,0.951,0.121,21.49,109.9975,24.89,25.99,19.08,0,111.2,13.12,25.73,25.5
"2009-06-30 01:03:30",1019949,6.286,65.01,1.742,0.171,21.44,109.9781,24.84,25.97,19.69,0,111.2,13.12,25.68,27.0
"2009-06-30 01:04:00",1019950,5.859,62.13,2.72,0.219,21.39,109.9663,24.81,25.94,20.14,0,111.2,13.12,25.65,24.1
"2009-06-30 01:04:30",1019951,5.711,65.32,2.354,0.239,21.34,109.9644,24.8,25.92,20.47,0,111.2,13.12,25.64,27.3
"2009-06-30 01:05:00",1019952,5.611,68.11,1.197,0.131,21.45,109.9609,24.79,25.91,20.59,0,111.2,13.12,25.63,30.1
"2009-06-30 01:05:30",1019953,5.456,65.31,2.858,0.256,21.56,109.9435,24.75,25.87,19.89,0,111.2,13.12,25.59,27.3
"2009-06-30 01:06:00",1019954,5.234,62.41,2.904,0.131,21.46,109.9378,24.73,25.87,20.21,0,111.2,13.12,25.57,24.4
"2009-06-30 01:06:30",1019955,5.222,62.76,3.895,0.285,21.5,109.9381,24.74,25.84,20.04,0,111.2,13.13,25.57,24.8
"2009-06-30 01:07:00",1019956,5.437,61.98,2.787,0.304,21.52,109.9354,24.73,25.82,20.17,0,111.2,13.13,25.57,24.0
"2009-06-30 01:07:30",1019957,5.675,62.94,2.555,0.25,21.5,109.9172,24.68,25.8,20.05,0,111.2,13.13,25.52,24.9
"2009-06-30 01:08:00",1019958,5.809,60.14,2.86,0.425,21.51,109.9079,24.66,25.78,20.05,0,111.2,13.13,25.50,22.1
"2009-06-30 01:08:30",1019959,5.732,65.67,1.751,0.243,21.64,109.9057,24.65,25.74,19.36,0,111.2,13.13,25.49,27.7
"2009-06-30 01:09:00",1019960,5.546,67.75,1.046,0.099,21.74,109.9034,24.65,25.74,18.91,0,111.2,13.13,25.48,29.8
"2009-06-30 01:09:30",1019961,5.353,68.65,1.033,0.15,21.73,109.8936,24.62,25.72,18.93,0,111.2,13.13,25.46,30.7
"2009-06-30 01:10:00",1019962,5.701,65.8,2.296,0.241,21.69,109.8838,24.6,25.7,18.83,0,111.2,13.13,25.43,27.8
"2009-06-30 01:10:30",1019963,6.188,62.91,1.055,0.217,21.65,109.8798,24.59,25.68,18.51,0,111.2,13.13,25.42,24.9
"2009-06-30 01:11:00",1019964,6.784,63.87,0.849,0.204,21.62,109.8773,24.58,25.67,18.12,0,111.2,13.13,25.42,25.9
"2009-06-30 01:11:30",1019965,6.486,57.04,6.534,0.328,21.45,109.8722,24.57,25.66,18.41,0,111.2,13.13,25.40,19.0
"2009-06-30 01:12:00",1019966,6.541,44.37,1.481,0.188,21.22,109.872,24.57,25.66,21,0,111.2,13.14,25.40,6.4
"2009-06-30 01:12:30",1019967,7.36,51.95,4.585,0.745,21.04,109.872,24.57,25.65,22.33,0,111.2,13.14,25.40,14.0
"2009-06-30 01:13:00",1019968,8.15,50.38,1.009,0.204,20.95,109.861,24.54,25.63,23.26,0,111.2,13.14,25.37,12.4
"2009-06-30 01:13:30",1019969,7.83,52.59,1.463,0.23,20.88,109.8408,24.49,25.62,24.38,0,111.2,13.14,25.32,14.6
"2009-06-30 01:14:00",1019970,7.993,53.6,0.938,0.107,20.83,109.829,24.46,25.6,25.03,0,111.2,13.14,25.29,15.6
"2009-06-30 01:14:30",1019971,7.99,55.24,1.549,0.291,20.77,109.8049,24.39,25.57,24.96,0,111.2,13.14,25.23,17.2
"2009-06-30 01:15:00",1019972,8.5,55.08,1.644,0.277,20.69,109.7798,24.33,25.52,25.59,0,111.1,13.14,25.17,17.1
"2009-06-30 01:15:30",1019973,7.994,55.04,0.828,0.155,20.83,109.7646,24.29,25.48,25.33,0,111.2,13.14,25.13,17.0
"2009-06-30 01:16:00",1019974,7.502,57.51,0.938,0.078,20.85,109.7453,24.24,25.44,24.99,0,111.1,13.14,25.08,19.5
"2009-06-30 01:16:30",1019975,7.469,56.09,1.974,0.146,20.94,109.7215,24.18,25.38,24.13,0,111.2,13.14,25.02,18.1
"2009-06-30 01:17:00",1019976,6.773,56.3,1.899,0.238,20.94,109.7122,24.16,25.34,24.53,0,111.1,13.13,24.99,18.3
"2009-06-30 01:17:30",1019977,6.441,51.59,1.323,0.147,21.13,109.6907,24.1,25.3,23.63,0,111.1,13.13,24.94,13.6
"2009-06-30 01:18:00",1019978,6.06,50.55,1.365,0.144,21.12,109.6833,24.08,25.25,23.42,0,111.1,13.13,24.92,12.5
"2009-06-30 01:18:30",1019979,6.092,54.17,3.101,0.312,20.97,109.6624,24.03,25.22,23.95,0,111.1,13.13,24.86,16.2
"2009-06-30 01:19:00",1019980,5.87,60.17,1.235,0.332,20.95,109.6596,24.02,25.18,23.34,0,111.1,13.13,24.86,22.2
"2009-06-30 01:19:30",1019981,5.875,61.71,1.578,0.187,20.84,109.6456,23.98,25.14,22.93,0,111.1,13.13,24.82,23.7
"2009-06-30 01:20:00",1019982,6.068,65.99,1.236,0.146,20.66,109.6371,23.96,25.11,23.47,0,111.1,13.13,24.80,28.0
"2009-06-30 01:20:30",1019983,5.993,69.48,1.631,0.095,20.9,109.6301,23.94,25.08,23,0,111.1,13.13,24.78,31.5
"2009-06-30 01:21:00",1019984,4.976,64.8,5.623,0.429,20.95,109.6301,23.94,25.05,22.47,0,111.1,13.13,24.78,26.8
"2009-06-30 01:21:30",1019985,5.187,62.2,3.759,0.202,21.01,109.6223,23.92,25.03,22.23,0,111.1,13.13,24.76,24.2
"2009-06-30 01:22:00",1019986,5.457,61.39,2.218,0.158,21.1,109.6066,23.88,25,21.74,0,111.1,13.14,24.72,23.4
"2009-06-30 01:22:30",1019987,5.65,65.01,2.742,0.103,21.12,109.6061,23.88,24.98,21.51,0,111.1,13.14,24.72,27.0
"2009-06-30 01:23:00",1019988,5.537,68.51,1.737,0.106,21.18,109.6019,23.87,24.97,21.42,0,111.1,13.14,24.71,30.5
"2009-06-30 01:23:30",1019989,5.307,63.7,2.388,0.136,21.21,109.6001,23.87,24.95,21.2,0,111.1,13.14,24.70,25.7
"2009-06-30 01:24:00",1019990,5.328,61.59,2.185,0.2,21.26,109.6017,23.87,24.94,21,0,111.1,13.14,24.71,23.6
"2009-06-30 01:24:30",1019991,5.078,61.99,1.225,0.172,21.28,109.602,23.87,24.94,20.91,0,111.1,13.14,24.71,24.0
"2009-06-30 01:25:00",1019992,5.242,63.1,0.956,0.2,21.36,109.6053,23.88,24.92,20.76,0,111.1,13.14,24.72,25.1
"2009-06-30 01:25:30",1019993,5.262,62,0.733,0.092,21.35,109.6053,23.88,24.91,20.72,0,111.1,13.14,24.72,24.0
"2009-06-30 01:26:00",1019994,5.073,62.83,3.304,0.169,21.38,109.6057,23.88,24.9,20.48,0,111.1,13.14,24.72,24.8
"2009-06-30 01:26:30",1019995,5.09,62.3,1.404,0.107,21.29,109.6057,23.88,24.91,20.42,0,111.1,13.14,24.72,24.3
"2009-06-30 01:27:00",1019996,4.952,61.47,0.723,0.102,21.29,109.6057,23.88,24.9,20.31,0,111.1,13.14,24.72,23.5
"2009-06-30 01:27:30",1019997,4.951,61.36,0.732,0.049,21.18,109.6057,23.88,24.91,20.26,0,111.1,13.14,24.72,23.4
"2009-06-30 01:28:00",1019998,4.845,61,0.554,0.079,21.15,109.6059,23.88,24.9,20.36,0,111.1,13.14,24.72,23.0
"2009-06-30 01:28:30",1019999,4.717,62.2,0.65,0.098,21.07,109.6062,23.88,24.9,20.37,0,111.1,13.14,24.72,24.2
"2009-06-30 01:29:00",1020000,4.499,59.66,1.277,0.104,21.01,109.6104,23.89,24.91,20.26,0,111.1,13.14,24.73,21.7
"2009-06-30 01:29:30",1020001,4.523,59.54,1.883,0.097,20.98,109.6141,23.9,24.92,20.21,0,111.1,13.14,24.74,21.5
"2009-06-30 01:30:00",1020002,4.681,60.7,0.85,0.145,21.01,109.6175,23.91,24.92,20.12,0,111.1,13.14,24.75,22.7
"2009-06-30 01:30:30",1020003,4.655,61.74,0.822,0.05,20.99,109.6267,23.94,24.92,19.95,0,111.1,13.15,24.77,23.7
"2009-06-30 01:31:00",1020004,4.72,62.53,0.641,0.066,20.94,109.638,23.96,24.93,19.86,0,111.1,13.14,24.80,24.5
"2009-06-30 01:31:30",1020005,4.65,63.27,0.692,0.06,20.95,109.6394,23.97,24.94,19.74,0,111.1,13.15,24.80,25.3
"2009-06-30 01:32:00",1020006,4.592,62.91,0.555,0.094,20.95,109.6402,23.97,24.96,19.65,0,111.1,13.15,24.81,24.9
"2009-06-30 01:32:30",1020007,4.752,62.14,0.142,0.044,20.92,109.6472,23.99,24.97,19.72,0,111.1,13.15,24.82,24.1
"2009-06-30 01:33:00",1020008,4.669,62.07,0.307,0.065,20.9,109.6554,24.01,24.98,19.88,0,111.1,13.15,24.84,24.1
"2009-06-30 01:33:30",1020009,4.495,62.58,0.381,0.037,20.87,109.6686,24.04,25,19.73,0,111.1,13.14,24.88,24.6
"2009-06-30 01:34:00",1020010,4.579,62.14,0.271,0.064,20.93,109.6731,24.05,25.02,19.58,0,111.1,13.14,24.89,24.1
"2009-06-30 01:34:30",1020011,4.477,61.68,0.54,0.061,20.96,109.6778,24.07,25.03,19.36,0,111.1,13.14,24.90,23.7
"2009-06-30 01:35:00",1020012,4.288,59.48,0.748,0.03,21.05,109.6877,24.09,25.05,18.94,0,111.1,13.14,24.93,21.5
"2009-06-30 01:35:30",1020013,4.221,57.8,0.57,0.058,21.08,109.7057,24.14,25.06,18.63,0,111.1,13.14,24.97,19.8
"2009-06-30 01:36:00",1020014,4.09,57.54,0.655,0.054,21.09,109.7073,24.14,25.09,18.53,0,111.1,13.14,24.98,19.5
"2009-06-30 01:36:30",1020015,3.93,57.27,1.021,0.086,21.16,109.7144,24.16,25.13,18.42,0,111.1,13.14,25.00,19.3
"2009-06-30 01:37:00",1020016,3.756,57.24,0.814,0.066,21.21,109.7337,24.21,25.13,18.36,0,111.1,13.14,25.05,19.2
"2009-06-30 01:37:30",1020017,3.659,57.52,1.535,0.1,21.14,109.7405,24.23,25.16,18.36,0,111.1,13.14,25.06,19.5
"2009-06-30 01:38:00",1020018,3.594,56.36,1.124,0.083,21.17,109.7452,24.24,25.18,18.45,0,111.1,13.14,25.08,18.4
"2009-06-30 01:38:30",1020019,3.61,57.37,1.466,0.077,21.16,109.7632,24.29,25.21,18.34,0,111.1,13.14,25.12,19.4
"2009-06-30 01:39:00",1020020,3.511,56.44,0.944,0.06,21.14,109.7745,24.32,25.24,18.23,0,111.1,13.14,25.15,18.4
"2009-06-30 01:39:30",1020021,3.499,57.03,1.077,0.075,21.14,109.7823,24.34,25.26,18.05,0,111.1,13.14,25.17,19.0
"2009-06-30 01:40:00",1020022,3.35,54.68,1.785,0.047,21.13,109.7981,24.38,25.29,17.95,0,111.1,13.14,25.21,16.7
"2009-06-30 01:40:30",1020023,3.399,49.46,0.302,0.038,20.89,109.8079,24.4,25.29,18.02,0,111.1,13.14,25.24,11.5
"2009-06-30 01:41:00",1020024,3.293,48.94,0.821,0.054,20.92,109.811,24.41,25.32,18.06,0,111.1,13.14,25.25,10.9
"2009-06-30 01:41:30",1020025,3.223,46.9,1.189,0.027,20.93,109.8242,24.44,25.36,17.98,0,111.1,13.14,25.28,8.9
"2009-06-30 01:42:00",1020026,3.168,45.51,0.658,0.035,20.92,109.8416,24.49,25.38,17.98,0,111.1,13.15,25.32,7.5
"2009-06-30 01:42:30",1020027,3.046,45.04,0.19,0.058,20.91,109.8444,24.49,25.42,17.96,0,111.1,13.15,25.33,7.0
"2009-06-30 01:43:00",1020028,3.157,45.82,0.594,0.085,20.91,109.8643,24.55,25.44,17.91,0,111.1,13.14,25.38,7.8
"2009-06-30 01:43:30",1020029,3.225,49.35,2.555,0.123,20.73,109.8742,24.57,25.46,18.14,0,111.1,13.14,25.41,11.3
"2009-06-30 01:44:00",1020030,3.105,51.43,1.907,0.106,20.64,109.8753,24.57,25.5,18.84,0,111.1,13.14,25.41,13.4
"2009-06-30 01:44:30",1020031,3.365,56.17,0.842,0.071,20.6,109.884,24.6,25.52,18.95,0,111.1,13.14,25.43,18.2
"2009-06-30 01:45:00",1020032,3.546,58.48,0.853,0.051,20.57,109.8983,24.63,25.55,19.12,0,111.1,13.14,25.47,20.5
"2009-06-30 01:45:30",1020033,3.323,58.77,0.524,0.053,20.51,109.9087,24.66,25.56,19.4,0,111.1,13.14,25.50,20.8
"2009-06-30 01:46:00",1020034,3.207,60.68,1.629,0.035,20.53,109.909,24.66,25.58,19.47,0,111.1,13.14,25.50,22.7
"2009-06-30 01:46:30",1020035,2.747,57.3,3.351,0.266,20.3,109.909,24.66,25.58,20.04,0,111.1,13.14,25.50,19.3
"2009-06-30 01:47:00",1020036,2.268,47.68,3.418,0.141,20.17,109.909,24.66,25.6,21.36,0,111.1,13.14,25.50,9.7
"2009-06-30 01:47:30",1020037,1.413,25.04,11.33,0.333,20.16,109.909,24.66,25.61,22.23,0,111.1,13.14,25.50,347.0